Flag for Canada Weather past 2 weeks in Rae-Edzo, Northwest Territories, Canada

Now
58 °F

Refreshingly cool.


Feels Like: 56 °F
Forecast: 35 / 56 °F
Wind: 9 mph from Southeast

Location: Lac La Martre

Current Time: Sep 4, 2015 at 5:49:26 PM

Latest Report: Sep 4, 2015 at 5:00 PM


Visibility: N/A

Pressure: 30.12 "Hg

Humidity: 34%

Dew point: 30 °F

Location of Rae-EdzoLocation

Historic Weather in Rae-Edzo — Graph

°F

Rae-Edzo temperature yesterday

Maximum temperature yesterday: 54 °F (at 5:00 PM)
Minimum temperature yesterday: 47 °F (at 10:00 PM)
Average temperature yesterday: 50 °F

Past Weeks' High & Low Weather Summary

 TemperatureHumidityPressure
High70 °F (Aug 27, 5:00 PM)100% (Aug 26, 4:00 AM)30.19 "Hg (Aug 26, 4:00 AM)
Low28 °F (Aug 23, 6:00 AM)31% (Sep 4, 4:00 PM)29.11 "Hg (Aug 31, 1:00 AM)
Average52 °F74%29.77 "Hg
* Reported Aug 20 5:00 PM — Sep 4 5:00 PM, Rae-Edzo, Weather by CustomWeather, © 2015

Note: Actual official high and low records may vary slightly from our data, if they occured in-between our weather recording intervals... More about our weather records

Advertising

Rae-Edzo weather history for previous 24 hours

 ConditionsComfort  
Time TempWeatherWind HumidityBarometerVisibility
5:00 PM
Fri, Sep 4
58 °FRefreshingly cool.9 mph34%30.12 "HgN/A
4:00 PM58 °FRefreshingly cool.7 mph31%30.13 "HgN/A
3:00 PM57 °FRefreshingly cool.8 mph37%30.14 "HgN/A
2:00 PM54 °FCool.7 mph42%30.15 "HgN/A
1:00 PM56 °FRefreshingly cool.6 mph41%30.16 "HgN/A
12:00 PM55 °FCool.7 mph41%30.17 "HgN/A
11:00 AM52 °FCool.3 mph55%30.18 "HgN/A
10:00 AM49 °FCool.5 mph67%30.18 "HgN/A
9:00 AM44 °FQuite cool.6 mph79%30.18 "HgN/A
8:00 AM40 °FQuite cool.2 mph90%30.19 "HgN/A
7:00 AM36 °FChilly.3 mph97%30.19 "HgN/A
6:00 AM36 °FChilly.6 mph95%30.18 "HgN/A
5:00 AM38 °FChilly.5 mph94%30.18 "HgN/A
4:00 AM41 °FQuite cool.5 mph90%30.17 "HgN/A
3:00 AM44 °FQuite cool.5 mph87%30.17 "HgN/A
2:00 AM46 °FCool.5 mph85%30.17 "HgN/A
1:00 AM47 °FCool.3 mph84%30.17 "HgN/A
12:00 AM48 °FCool.3 mph82%30.17 "HgN/A
11:00 PM
Thu, Sep 3
48 °FCool.3 mph80%30.17 "HgN/A
10:00 PM47 °FCool.3 mph85%30.17 "HgN/A
9:00 PM48 °FCool.3 mph79%30.16 "HgN/A
8:00 PM50 °FCool.6 mph75%30.16 "HgN/A
7:00 PM53 °FCool.7 mph65%30.14 "HgN/A
6:00 PM54 °FCool.8 mph64%30.14 "HgN/A
5:00 PM54 °FCool.6 mph64%30.14 "HgN/A
Weather by CustomWeather, © 2015

See weather overviewHow to use our weather pages